DW5656 Weather Reports


time (UTC)temp
F
wind
direction
speed
knots
gust
knots
rain 1hr
in
rain 24hr
in
rain mn
in
humidity
%
barometer
mb
20260505032928 61 5 1.7 7.0 0.00 0.00 0.00 63 1014.6
20260505032029 61 7 2.6 7.0 0.00 0.00 0.00 63 1014.6
20260505031129 61 7 2.6 7.0 0.00 0.00 0.00 62 1014.6
20260505030228 61 12 3.5 8.7 0.00 0.00 0.00 62 1014.6
20260505025328 61 6 2.6 7.8 0.00 0.00 0.00 62 1014.6
20260505024449 61 19 2.6 7.8 0.00 0.00 0.00 61 1014.6
20260505023549 61 12 2.6 7.0 0.00 0.00 0.00 61 1014.7
20260505022628 62 9 2.6 7.8 0.00 0.00 0.00 60 1014.7
20260505021728 62 3 1.7 7.8 0.00 0.00 0.00 60 1014.7
20260505020828 62 26 2.6 7.0 0.00 0.00 0.00 60 1014.7
20260505015928 62 33 2.6 7.0 0.00 0.00 0.00 60 1014.7
20260505015028 62 41 1.7 5.2 0.00 0.00 0.00 59 1014.6
20260505014128 63 14 1.7 5.2 0.00 0.00 0.00 59 1014.7
20260505013229 63 1 1.7 7.8 0.00 0.00 0.00 58 1014.8
20260505012349 63 351 1.7 4.3 0.00 0.00 0.00 58 1014.9
20260505011428 63 341 2.6 7.0 0.00 0.00 0.00 58 1014.9
20260505010528 63 339 1.7 7.0 0.00 0.00 0.00 58 1015.0
20260505005649 63 336 2.6 7.8 0.00 0.00 0.00 58 1015.1
20260505004728 63 344 1.7 7.8 0.00 0.00 0.00 57 1015.2
20260505003828 63 341 1.7 5.2 0.00 0.00 0.00 57 1015.1
20260505002929 63 334 2.6 7.0 0.00 0.00 0.00 57 1015.2
20260505002049 63 330 2.6 7.0 0.00 0.00 0.00 57 1015.3
20260505001128 64 330 2.6 7.0 0.00 0.00 0.00 57 1015.3
20260505000228 64 325 2.6 7.0 0.00 0.00 0.00 57 1015.4
20260504235328 64 331 2.6 7.8 0.00 0.00 0.00 57 1015.3
20260504234428 64 341 1.7 5.2 0.00 0.00 0.00 57 1015.2
20260504233528 64 355 1.7 6.1 0.00 0.00 0.00 58 1015.4
20260504232628 63 340 0.0 6.1 0.00 0.00 0.00 61 1015.3
20260504231728 63 229 0.0 0.9 0.00 0.00 0.00 70 1015.3
20260504230828 63 229 0.0 0.9 0.00 0.00 0.00 70 1015.3
20260504225928 63 229 0.0 0.9 0.00 0.00 0.00 71 1015.2
20260504225028 63 228 0.9 2.6 0.00 0.00 0.00 70 1015.2
20260504224128 64 223 0.9 3.5 0.00 0.00 0.00 69 1015.1
20260504223228 64 208 0.9 3.5 0.00 0.00 0.00 68 1015.1
20260504222328 64 217 0.0 3.5 0.00 0.00 0.00 68 1015.1
20260504221428 64 228 0.9 3.5 0.00 0.00 0.00 67 1015.1
20260504220527 64 229 0.9 3.5 0.00 0.00 0.00 67 1015.1
20260504215649 64 233 0.9 3.5 0.00 0.00 0.00 67 1015.1
20260504214749 64 227 0.9 3.5 0.00 0.00 0.00 67 1015.0
20260504213828 64 222 0.9 3.5 0.00 0.00 0.00 66 1015.0
20260504212949 64 232 1.7 2.6 0.00 0.00 0.00 66 1015.0
20260504212028 65 257 2.6 6.1 0.00 0.00 0.00 65 1015.0
20260504211127 65 246 3.5 8.7 0.00 0.00 0.00 65 1015.1
20260504210248 65 239 2.6 7.0 0.00 0.00 0.00 64 1015.0
20260504205327 65 228 2.6 7.0 0.00 0.00 0.00 64 1014.9
20260504204427 65 229 2.6 6.1 0.00 0.00 0.00 63 1014.8
20260504203527 66 212 2.6 6.1 0.00 0.00 0.00 62 1014.6
20260504202627 66 228 2.6 6.1 0.00 0.00 0.00 62 1014.5
20260504201727 66 227 3.5 7.8 0.00 0.00 0.00 61 1014.4
20260504200827 66 233 3.5 9.6 0.00 0.00 0.00 60 1014.3
20260504195927 67 242 4.3 9.6 0.00 0.00 0.00 60 1014.1
20260504195048 67 240 5.2 11.3 0.00 0.00 0.00 59 1014.0
20260504194127 67 247 6.1 12.2 0.00 0.00 0.00 58 1013.8
20260504193227 68 246 6.1 15.6 0.00 0.00 0.00 58 1013.8
20260504192348 68 258 5.2 15.6 0.00 0.00 0.00 58 1013.8
20260504191428 68 257 6.1 12.2 0.00 0.00 0.00 57 1013.7
20260504190527 69 247 5.2 14.8 0.00 0.00 0.00 57 1013.6
20260504185627 69 249 6.1 12.2 0.00 0.00 0.00 56 1013.6
20260504184728 70 253 7.0 13.0 0.00 0.00 0.00 56 1013.5
20260504183827 70 253 7.8 12.2 0.00 0.00 0.00 56 1013.4
20260504182927 70 248 7.8 14.8 0.00 0.00 0.00 56 1013.2
20260504182027 70 255 7.8 14.8 0.00 0.00 0.00 55 1013.2
20260504181127 71 251 7.8 15.6 0.00 0.00 0.00 55 1013.2
20260504180227 71 256 7.0 15.6 0.00 0.00 0.00 55 1013.1
20260504175327 72 262 7.8 15.6 0.00 0.00 0.00 54 1013.2
20260504174448 72 257 7.8 14.8 0.00 0.00 0.00 53 1013.1
20260504173548 72 257 8.7 16.5 0.00 0.00 0.00 53 1013.1
20260504172627 72 248 8.7 20.0 0.00 0.00 0.00 54 1013.0
20260504171727 73 244 8.7 18.2 0.00 0.00 0.00 53 1013.1
20260504170827 73 257 7.8 17.4 0.00 0.00 0.00 52 1013.1
20260504151126 75 280 4.3 8.7 0.00 0.00 0.00 36 1013.4
20260504150226 74 244 4.3 13.9 0.00 0.00 0.00 38 1013.5
20260504140847 74 238 4.3 11.3 0.00 0.00 0.00 38 1013.9
20260504130526 73 271 2.6 12.2 0.00 0.00 0.00 41 1014.2
20260504120226 71 270 3.5 10.4 0.00 0.00 0.00 45 1014.9
20260504100526 68 238 1.7 9.6 0.00 0.00 0.00 53 1015.4
20260504081725 63 321 2.6 7.0 0.00 0.00 0.00 72 1015.4
20260504080825 63 345 2.6 7.8 0.00 0.00 0.00 72 1015.4
20260504060225 60 305 0.0 0.9 0.00 0.00 0.00 82 1014.6
20260504045925 60 0 0.0 0.0 0.00 0.00 0.00 81 1014.0
20260504045046 60 0 0.0 0.0 0.00 0.00 0.00 81 1013.9
20260504044125 60 0 0.0 0.0 0.00 0.00 0.00 82 1013.8
20260504043225 60 0 0.0 0.0 0.00 0.00 0.00 82 1013.8
20260504042324 60 0 0.0 0.0 0.00 0.00 0.00 82 1013.7
20260504041425 60 0 0.0 0.0 0.00 0.00 0.00 82 1013.6
20260504040524 60 0 0.0 0.0 0.00 0.00 0.00 82 1013.7
20260504035624 60 0 0.0 0.0 0.00 0.00 0.00 82 1013.6
20260504034726 60 0 0.0 0.0 0.00 0.00 0.00 82 1013.7
20260504033824 60 0 0.0 0.0 0.00 0.00 0.00 82 1013.8